FFT4306 KSFO-KSAN

Flight info

Callsign FFT4306
Flight time 1h 14m
Altitude 37000
Route WESLA5 YYUNG LAX COMIX2
Aircraft A20N/M-SDE2E3FGHIRWXY/LB1

Departure

Time 2026-05-05 04:16
Airport San Francisco International Airport (KSFO)

Arrival

Time 2026-05-05 05:30
Airport San Diego International Airport (KSAN)
Time Latitude Longitude Altitude Speed Heading
2026-05-05 03:44 37.61776 -122.39248 20 ft 0 kts 26°
2026-05-05 04:00 37.61774 -122.39249 11 ft 3 kts 26°
2026-05-05 04:01 37.61757 -122.39260 22 ft 3 kts 26°
2026-05-05 04:01 37.61740 -122.39271 20 ft 3 kts 26°
2026-05-05 04:01 37.61725 -122.39280 23 ft 0 kts 33°
2026-05-05 04:01 37.61711 -122.39287 21 ft 3 kts
2026-05-05 04:02 37.61693 -122.39281 21 ft 3 kts 320°
2026-05-05 04:02 37.61688 -122.39275 21 ft 0 kts 312°
2026-05-05 04:06 37.61727 -122.39356 22 ft 20 kts 297°
2026-05-05 04:06 37.61800 -122.39500 20 ft 19 kts 326°
2026-05-05 04:06 37.61922 -122.39530 19 ft 18 kts
2026-05-05 04:07 37.61984 -122.39432 20 ft 14 kts 75°
2026-05-05 04:07 37.62012 -122.39315 20 ft 15 kts 72°
2026-05-05 04:07 37.62087 -122.39198 19 ft 19 kts 25°
2026-05-05 04:07 37.62201 -122.39125 17 ft 18 kts 27°
2026-05-05 04:08 37.62250 -122.39008 16 ft 15 kts 73°
2026-05-05 04:08 37.62256 -122.38889 16 ft 13 kts 117°
2026-05-05 04:08 37.62204 -122.38765 16 ft 18 kts 118°
2026-05-05 04:08 37.62152 -122.38641 19 ft 14 kts 117°
2026-05-05 04:09 37.62110 -122.38536 22 ft 12 kts 119°
2026-05-05 04:09 37.62070 -122.38449 22 ft 11 kts 120°
2026-05-05 04:09 37.62040 -122.38380 24 ft 7 kts 117°
2026-05-05 04:09 37.62009 -122.38305 25 ft 18 kts 118°
2026-05-05 04:10 37.61945 -122.38153 25 ft 20 kts 117°
2026-05-05 04:10 37.61881 -122.37998 26 ft 20 kts 118°
2026-05-05 04:10 37.61820 -122.37839 21 ft 20 kts 111°
2026-05-05 04:10 37.61772 -122.37679 22 ft 19 kts 112°
2026-05-05 04:11 37.61726 -122.37530 23 ft 17 kts 114°
2026-05-05 04:11 37.61660 -122.37368 25 ft 25 kts 117°
2026-05-05 04:11 37.61582 -122.37184 26 ft 24 kts 118°
2026-05-05 04:11 37.61505 -122.37002 30 ft 23 kts 119°
2026-05-05 04:12 37.61409 -122.36844 23 ft 23 kts 132°
2026-05-05 04:12 37.61322 -122.36676 23 ft 23 kts 117°
2026-05-05 04:12 37.61247 -122.36498 20 ft 23 kts 118°
2026-05-05 04:12 37.61178 -122.36330 23 ft 21 kts 117°
2026-05-05 04:13 37.61110 -122.36171 23 ft 20 kts 118°
2026-05-05 04:13 37.61053 -122.36024 26 ft 17 kts 106°
2026-05-05 04:13 37.61054 -122.35971 25 ft 0 kts 65°
2026-05-05 04:13 37.61055 -122.35970 25 ft 0 kts 65°
2026-05-05 04:14 37.61055 -122.35969 25 ft 0 kts 65°
2026-05-05 04:14 37.61056 -122.35966 25 ft 0 kts 65°
2026-05-05 04:15 37.61116 -122.35899 25 ft 18 kts 29°
2026-05-05 04:15 37.61202 -122.35907 26 ft 10 kts 298°
2026-05-05 04:16 37.61251 -122.36035 23 ft 36 kts 297°
2026-05-05 04:16 37.61477 -122.36571 22 ft 102 kts 298°
2026-05-05 04:16 37.61905 -122.37588 65 ft 150 kts 298°
2026-05-05 04:16 37.62378 -122.38728 673 ft 150 kts 297°
2026-05-05 04:17 37.62827 -122.39944 1230 ft 159 kts 294°
2026-05-05 04:17 37.63314 -122.41269 1774 ft 172 kts 295°
2026-05-05 04:17 37.63888 -122.42690 2271 ft 195 kts 298°
2026-05-05 04:17 37.64601 -122.44347 2505 ft 233 kts 297°
2026-05-05 04:18 37.65421 -122.46209 2818 ft 245 kts 298°
2026-05-05 04:18 37.66222 -122.48051 2837 ft 228 kts 297°
2026-05-05 04:18 37.66880 -122.49885 3212 ft 239 kts 285°
2026-05-05 04:18 37.66992 -122.52033 3169 ft 252 kts 258°
2026-05-05 04:19 37.66209 -122.53984 3117 ft 252 kts 227°
2026-05-05 04:19 37.64720 -122.55102 3000 ft 256 kts 195°
2026-05-05 04:19 37.62948 -122.54985 2951 ft 260 kts 164°
2026-05-05 04:19 37.61264 -122.54045 3009 ft 265 kts 154°
2026-05-05 04:20 37.59674 -122.52888 3029 ft 266 kts 150°
2026-05-05 04:20 37.58084 -122.51740 3151 ft 268 kts 155°
2026-05-05 04:20 37.56308 -122.50837 3651 ft 283 kts 161°
2026-05-05 04:20 37.54492 -122.49913 4930 ft 270 kts 159°
2026-05-05 04:21 37.52812 -122.49115 6419 ft 256 kts 159°
2026-05-05 04:21 37.51129 -122.48319 7263 ft 261 kts 160°
2026-05-05 04:21 37.49359 -122.47710 7982 ft 270 kts 170°
2026-05-05 04:21 37.47447 -122.47672 8729 ft 279 kts 184°
2026-05-05 04:22 37.45478 -122.48006 9476 ft 288 kts 188°
2026-05-05 04:22 37.43506 -122.48404 10195 ft 295 kts 188°
2026-05-05 04:22 37.41409 -122.48823 10576 ft 315 kts 188°
2026-05-05 04:22 37.39158 -122.49260 10908 ft 334 kts 187°
2026-05-05 04:23 37.36828 -122.49704 11469 ft 345 kts 187°
2026-05-05 04:23 37.34424 -122.50157 12191 ft 350 kts 187°
2026-05-05 04:23 37.32021 -122.50607 12938 ft 355 kts 187°
2026-05-05 04:23 37.29554 -122.51067 13712 ft 360 kts 187°
2026-05-05 04:24 37.27057 -122.51531 14403 ft 364 kts 187°
2026-05-05 04:24 37.24529 -122.52000 15085 ft 369 kts 187°
2026-05-05 04:24 37.21973 -122.52474 15767 ft 373 kts 187°
2026-05-05 04:25 37.17183 -122.53360 17030 ft 380 kts 186°
2026-05-05 04:25 37.15307 -122.53707 17522 ft 383 kts 186°
2026-05-05 04:26 37.12690 -122.54191 18200 ft 386 kts 186°
2026-05-05 04:26 37.10009 -122.54686 18779 ft 390 kts 186°
2026-05-05 04:26 37.07302 -122.55185 19349 ft 394 kts 186°
2026-05-05 04:26 37.04562 -122.55599 19923 ft 396 kts 181°
2026-05-05 04:27 37.01802 -122.55531 20484 ft 396 kts 170°
2026-05-05 04:27 36.99140 -122.54827 21033 ft 396 kts 159°
2026-05-05 04:27 36.96605 -122.53481 21603 ft 394 kts 148°
2026-05-05 04:27 36.94200 -122.51778 22188 ft 396 kts 146°
2026-05-05 04:28 36.91852 -122.50029 22744 ft 398 kts 145°
2026-05-05 04:28 36.89451 -122.48237 23286 ft 401 kts 145°
2026-05-05 04:28 36.87063 -122.46466 23774 ft 405 kts 145°
2026-05-05 04:28 36.84618 -122.44661 24196 ft 407 kts 146°
2026-05-05 04:29 36.82155 -122.42848 24617 ft 410 kts 146°
2026-05-05 04:29 36.79708 -122.41052 25031 ft 413 kts 146°
2026-05-05 04:29 36.77208 -122.39219 25431 ft 415 kts 146°
2026-05-05 04:29 36.74724 -122.37400 25830 ft 418 kts 146°
2026-05-05 04:30 36.73049 -122.36175 26096 ft 419 kts 147°
2026-05-05 04:30 36.69693 -122.33721 26583 ft 423 kts 147°
2026-05-05 04:30 36.67993 -122.32480 26834 ft 424 kts 147°
2026-05-05 04:30 36.65423 -122.30604 27191 ft 427 kts 147°
2026-05-05 04:31 36.62012 -122.28116 27637 ft 431 kts 148°
2026-05-05 04:31 36.60288 -122.26860 27855 ft 433 kts 148°
2026-05-05 04:31 36.56810 -122.24328 28291 ft 437 kts 148°
2026-05-05 04:31 36.55058 -122.23054 28487 ft 439 kts 148°
2026-05-05 04:32 36.52389 -122.21114 28794 ft 442 kts 149°
2026-05-05 04:32 36.49755 -122.19200 29102 ft 445 kts 149°
2026-05-05 04:32 36.47054 -122.17240 29398 ft 447 kts 149°
2026-05-05 04:32 36.44357 -122.15284 29663 ft 451 kts 150°
2026-05-05 04:33 36.41628 -122.13307 29917 ft 454 kts 150°
2026-05-05 04:33 36.38910 -122.11340 30186 ft 456 kts 150°
2026-05-05 04:33 36.36153 -122.09345 30501 ft 456 kts 151°
2026-05-05 04:33 36.33423 -122.07371 30812 ft 457 kts 152°
2026-05-05 04:34 36.30667 -122.05380 31096 ft 457 kts 153°
2026-05-05 04:34 36.27931 -122.03406 31397 ft 457 kts 153°
2026-05-05 04:34 36.25201 -122.01437 31715 ft 457 kts 153°
2026-05-05 04:34 36.22437 -121.99446 32036 ft 456 kts 154°
2026-05-05 04:35 36.19689 -121.97467 32340 ft 456 kts 154°
2026-05-05 04:35 36.16948 -121.95496 32634 ft 455 kts 155°
2026-05-05 04:35 36.14225 -121.93539 32940 ft 455 kts 155°
2026-05-05 04:35 36.11476 -121.91564 33223 ft 454 kts 155°
2026-05-05 04:36 36.08757 -121.89613 33507 ft 454 kts 156°
2026-05-05 04:36 36.06021 -121.87652 33785 ft 454 kts 156°
2026-05-05 04:36 36.03282 -121.85685 34054 ft 454 kts 155°
2026-05-05 04:36 36.00675 -121.83480 34256 ft 461 kts 147°
2026-05-05 04:37 35.98351 -121.80679 34440 ft 471 kts 136°
2026-05-05 04:37 35.96304 -121.77551 34647 ft 473 kts 134°
2026-05-05 04:37 35.94289 -121.74320 34837 ft 473 kts 133°
2026-05-05 04:37 35.92299 -121.71115 35020 ft 474 kts 134°
2026-05-05 04:38 35.90280 -121.67880 35188 ft 474 kts 134°
2026-05-05 04:38 35.88258 -121.64651 35372 ft 474 kts 134°
2026-05-05 04:38 35.86232 -121.61424 35565 ft 474 kts 134°
2026-05-05 04:38 35.84232 -121.58246 35739 ft 474 kts 134°
2026-05-05 04:39 35.82200 -121.55023 35903 ft 474 kts 134°
2026-05-05 04:39 35.80188 -121.51834 36078 ft 474 kts 134°
2026-05-05 04:39 35.78159 -121.48623 36256 ft 474 kts 134°
2026-05-05 04:39 35.76139 -121.45429 36409 ft 474 kts 134°
2026-05-05 04:40 35.74106 -121.42218 36556 ft 475 kts 134°
2026-05-05 04:40 35.72082 -121.39023 36719 ft 475 kts 134°
2026-05-05 04:40 35.70029 -121.35786 36882 ft 475 kts 134°
2026-05-05 04:40 35.68019 -121.32620 37018 ft 475 kts 135°
2026-05-05 04:41 35.65982 -121.29414 37047 ft 474 kts 135°
2026-05-05 04:41 35.61937 -121.23055 37043 ft 472 kts 135°
2026-05-05 04:42 35.57869 -121.16676 37051 ft 472 kts 135°
2026-05-05 04:42 35.53811 -121.10323 37043 ft 473 kts 135°
2026-05-05 04:43 35.49846 -121.03880 37046 ft 476 kts 133°
2026-05-05 04:43 35.46001 -120.97223 37045 ft 477 kts 133°
2026-05-05 04:44 35.42181 -120.90622 37048 ft 478 kts 134°
2026-05-05 04:44 35.38300 -120.83941 37053 ft 479 kts 134°
2026-05-05 04:45 35.34426 -120.77289 37048 ft 480 kts 134°
2026-05-05 04:45 35.30551 -120.70651 37054 ft 481 kts 135°
2026-05-05 04:46 35.26658 -120.63994 37057 ft 483 kts 135°
2026-05-05 04:46 35.22750 -120.57324 37059 ft 484 kts 136°
2026-05-05 04:47 35.18809 -120.50611 37051 ft 485 kts 136°
2026-05-05 04:47 35.14864 -120.43903 37052 ft 487 kts 137°
2026-05-05 04:48 35.10917 -120.37202 37067 ft 489 kts 137°
2026-05-05 04:48 35.06934 -120.30459 37061 ft 490 kts 137°
2026-05-05 04:49 35.03072 -120.23929 37059 ft 491 kts 138°
2026-05-05 04:50 35.00804 -120.20102 37060 ft 492 kts 138°
2026-05-05 04:51 34.96774 -120.13310 37053 ft 493 kts 139°
2026-05-05 04:51 34.92751 -120.06542 37050 ft 494 kts 139°
2026-05-05 04:52 34.88723 -119.99777 37040 ft 494 kts 140°
2026-05-05 04:52 34.84681 -119.93001 37049 ft 494 kts 140°
2026-05-05 04:53 34.80634 -119.86232 37043 ft 495 kts 141°
2026-05-05 04:53 34.76582 -119.79475 37542 ft 493 kts 127°
2026-05-05 04:53 34.74580 -119.76206 38312 ft 467 kts 132°
2026-05-05 04:54 34.72643 -119.73074 38396 ft 458 kts 132°
2026-05-05 04:54 34.70795 -119.69974 38120 ft 453 kts 131°
2026-05-05 04:54 34.68957 -119.66862 37858 ft 453 kts 131°
2026-05-05 04:54 34.67118 -119.63769 37606 ft 454 kts 131°
2026-05-05 04:55 34.65251 -119.60648 37343 ft 455 kts 132°
2026-05-05 04:55 34.63402 -119.57569 37099 ft 455 kts 132°
2026-05-05 04:55 34.61525 -119.54450 37024 ft 455 kts 132°
2026-05-05 04:56 34.57785 -119.48255 37023 ft 456 kts 132°
2026-05-05 04:56 34.54040 -119.42067 37019 ft 456 kts 132°
2026-05-05 04:57 34.50283 -119.35871 37028 ft 456 kts 133°
2026-05-05 04:57 34.46521 -119.29676 37034 ft 456 kts 133°
2026-05-05 04:58 34.42767 -119.23506 37037 ft 456 kts 133°
2026-05-05 04:58 34.38978 -119.17291 37032 ft 456 kts 133°
2026-05-05 04:59 34.35210 -119.11121 37035 ft 456 kts 134°
2026-05-05 04:59 34.31449 -119.04971 37041 ft 457 kts 134°
2026-05-05 05:00 34.30011 -119.02624 37041 ft 457 kts 134°
2026-05-05 05:01 34.27833 -118.99069 37042 ft 456 kts 134°
2026-05-05 05:02 34.24919 -118.94321 37045 ft 457 kts 134°
2026-05-05 05:02 34.21134 -118.88162 37039 ft 457 kts 135°
2026-05-05 05:03 34.17359 -118.82029 37037 ft 457 kts 135°
2026-05-05 05:03 34.13565 -118.75876 37034 ft 457 kts 136°
2026-05-05 05:04 34.09771 -118.69735 36737 ft 459 kts 136°
2026-05-05 05:04 34.07844 -118.66620 36495 ft 459 kts 136°
2026-05-05 05:04 34.05957 -118.63569 36256 ft 459 kts 136°
2026-05-05 05:04 34.04031 -118.60461 36020 ft 460 kts 136°
2026-05-05 05:05 34.02131 -118.57397 35782 ft 460 kts 136°
2026-05-05 05:05 34.00212 -118.54305 35541 ft 460 kts 136°
2026-05-05 05:05 33.98282 -118.51197 35309 ft 460 kts 137°
2026-05-05 05:05 33.96358 -118.48102 35067 ft 461 kts 137°
2026-05-05 05:06 33.94451 -118.45038 34838 ft 460 kts 137°
2026-05-05 05:06 33.92423 -118.42077 34616 ft 454 kts 142°
2026-05-05 05:06 33.90294 -118.39264 34381 ft 452 kts 144°
2026-05-05 05:06 33.88175 -118.36521 34156 ft 451 kts 144°
2026-05-05 05:07 33.86029 -118.33752 33913 ft 451 kts 144°
2026-05-05 05:07 33.83899 -118.31004 33641 ft 451 kts 144°
2026-05-05 05:07 33.81758 -118.28242 33372 ft 451 kts 144°
2026-05-05 05:07 33.79601 -118.25458 33114 ft 451 kts 144°
2026-05-05 05:08 33.77491 -118.22728 32714 ft 449 kts 144°
2026-05-05 05:08 33.75369 -118.19950 31936 ft 452 kts 143°
2026-05-05 05:08 33.73225 -118.17135 31259 ft 453 kts 143°
2026-05-05 05:08 33.71118 -118.14363 30701 ft 450 kts 143°
2026-05-05 05:09 33.69007 -118.11587 30052 ft 450 kts 142°
2026-05-05 05:09 33.66914 -118.08841 29342 ft 448 kts 142°
2026-05-05 05:09 33.64807 -118.06077 28728 ft 444 kts 142°
2026-05-05 05:09 33.62731 -118.03356 28144 ft 441 kts 141°
2026-05-05 05:10 33.60654 -118.00638 27517 ft 438 kts 141°
2026-05-05 05:10 33.58617 -117.97975 26887 ft 436 kts 141°
2026-05-05 05:10 33.56564 -117.95295 26255 ft 434 kts 140°
2026-05-05 05:10 33.54504 -117.92691 25631 ft 430 kts 142°
2026-05-05 05:11 33.52376 -117.90187 25001 ft 425 kts 142°
2026-05-05 05:11 33.50271 -117.87747 24381 ft 415 kts 142°
2026-05-05 05:11 33.48235 -117.85391 23777 ft 405 kts 142°
2026-05-05 05:11 33.46217 -117.83056 23084 ft 396 kts 141°
2026-05-05 05:12 33.44244 -117.80788 22464 ft 385 kts 142°
2026-05-05 05:12 33.42310 -117.78678 21882 ft 375 kts 143°
2026-05-05 05:12 33.40384 -117.76618 21314 ft 366 kts 144°
2026-05-05 05:12 33.38499 -117.74607 20757 ft 358 kts 144°
2026-05-05 05:13 33.36675 -117.72662 20211 ft 351 kts 144°
2026-05-05 05:13 33.34863 -117.70731 19688 ft 346 kts 144°
2026-05-05 05:13 33.33059 -117.68811 19150 ft 347 kts 143°
2026-05-05 05:13 33.31263 -117.66901 18609 ft 350 kts 143°
2026-05-05 05:14 33.29428 -117.64949 18010 ft 353 kts 143°
2026-05-05 05:14 33.27577 -117.62980 17419 ft 354 kts 143°
2026-05-05 05:14 33.25759 -117.61044 16881 ft 352 kts 143°
2026-05-05 05:14 33.23920 -117.59097 16318 ft 351 kts 143°
2026-05-05 05:15 33.22109 -117.57188 15778 ft 351 kts 142°
2026-05-05 05:15 33.20287 -117.55267 15530 ft 341 kts 142°
2026-05-05 05:15 33.18549 -117.53431 15381 ft 324 kts 143°
2026-05-05 05:15 33.16923 -117.51714 15234 ft 306 kts 143°
2026-05-05 05:16 33.15355 -117.50064 15112 ft 294 kts 143°
2026-05-05 05:16 33.13824 -117.48501 14969 ft 283 kts 147°
2026-05-05 05:16 33.12286 -117.47147 14807 ft 274 kts 149°
2026-05-05 05:16 33.10727 -117.45844 14428 ft 274 kts 150°
2026-05-05 05:17 33.09154 -117.44541 14124 ft 272 kts 150°
2026-05-05 05:17 33.07611 -117.43263 13755 ft 273 kts 149°
2026-05-05 05:17 33.06578 -117.42406 13539 ft 270 kts 149°
2026-05-05 05:17 33.04535 -117.40702 13057 ft 269 kts 149°
2026-05-05 05:18 33.03513 -117.39846 12835 ft 268 kts 149°
2026-05-05 05:18 33.01454 -117.38123 12429 ft 277 kts 149°
2026-05-05 05:18 33.00373 -117.37219 12188 ft 280 kts 149°
2026-05-05 05:18 32.98796 -117.35896 11854 ft 280 kts 149°
2026-05-05 05:19 32.97207 -117.34562 11528 ft 278 kts 149°
2026-05-05 05:19 32.95625 -117.33235 11195 ft 277 kts 149°
2026-05-05 05:19 32.94068 -117.31931 10881 ft 276 kts 149°
2026-05-05 05:19 32.92500 -117.30618 10554 ft 275 kts 149°
2026-05-05 05:20 32.90922 -117.29302 10236 ft 274 kts 149°
2026-05-05 05:20 32.89352 -117.27996 9899 ft 274 kts 149°
2026-05-05 05:20 32.87795 -117.26701 9550 ft 273 kts 149°
2026-05-05 05:20 32.86258 -117.25424 9224 ft 271 kts 149°
2026-05-05 05:21 32.84709 -117.24138 8912 ft 270 kts 149°
2026-05-05 05:21 32.83184 -117.22871 8609 ft 268 kts 149°
2026-05-05 05:21 32.81718 -117.21485 8252 ft 270 kts 134°
2026-05-05 05:21 32.80811 -117.19566 8087 ft 265 kts 111°
2026-05-05 05:22 32.80296 -117.17496 7925 ft 255 kts 106°
2026-05-05 05:22 32.79866 -117.15502 7614 ft 250 kts 106°
2026-05-05 05:22 32.79438 -117.13502 7201 ft 250 kts 106°
2026-05-05 05:22 32.78997 -117.11479 6754 ft 252 kts 106°
2026-05-05 05:23 32.78558 -117.09479 6441 ft 247 kts 106°
2026-05-05 05:23 32.78130 -117.07550 6148 ft 242 kts 107°
2026-05-05 05:23 32.77572 -117.05669 5968 ft 239 kts 115°
2026-05-05 05:23 32.76890 -117.03853 5942 ft 240 kts 116°
2026-05-05 05:24 32.76189 -117.02055 5722 ft 239 kts 116°
2026-05-05 05:24 32.75494 -117.00284 5471 ft 238 kts 116°
2026-05-05 05:24 32.74876 -116.98460 5219 ft 237 kts 109°
2026-05-05 05:24 32.74394 -116.96577 4967 ft 237 kts 107°
2026-05-05 05:25 32.73766 -116.94811 4703 ft 232 kts 129°
2026-05-05 05:25 32.72539 -116.93689 4429 ft 218 kts 163°
2026-05-05 05:25 32.71069 -116.93493 4174 ft 209 kts 186°
2026-05-05 05:25 32.69671 -116.93813 3940 ft 205 kts 208°
2026-05-05 05:26 32.68647 -116.94923 3687 ft 201 kts 239°
2026-05-05 05:26 32.68066 -116.96430 3436 ft 200 kts 249°
2026-05-05 05:26 32.67602 -116.97982 3188 ft 202 kts 250°
2026-05-05 05:26 32.67443 -116.99625 3282 ft 203 kts 278°
2026-05-05 05:27 32.68015 -117.01126 3345 ft 205 kts 305°
2026-05-05 05:27 32.68900 -117.02450 3130 ft 203 kts 305°
2026-05-05 05:27 32.70215 -117.05281 2786 ft 195 kts 285°
2026-05-05 05:28 32.70537 -117.06821 2623 ft 189 kts 279°
2026-05-05 05:28 32.70767 -117.08306 2371 ft 177 kts 279°
2026-05-05 05:28 32.71057 -117.09694 2020 ft 174 kts 288°
2026-05-05 05:28 32.71450 -117.11075 1560 ft 179 kts 284°
2026-05-05 05:29 32.71736 -117.12506 1194 ft 177 kts 282°
2026-05-05 05:29 32.72094 -117.13875 952 ft 166 kts 289°
2026-05-05 05:29 32.72428 -117.15130 701 ft 154 kts 283°
2026-05-05 05:29 32.72713 -117.16329 431 ft 147 kts 285°
2026-05-05 05:30 32.72983 -117.17457 168 ft 137 kts 284°
2026-05-05 05:30 32.73241 -117.18497 29 ft 123 kts 282°
2026-05-05 05:30 32.73426 -117.19248 26 ft 56 kts 287°
2026-05-05 05:30 32.73421 -117.19495 30 ft 23 kts 246°
2026-05-05 05:31 32.73416 -117.19642 29 ft 8 kts 288°
2026-05-05 05:31 32.73406 -117.19692 29 ft 5 kts 222°
2026-05-05 05:31 32.73372 -117.19703 28 ft 5 kts 195°
2026-05-05 05:31 32.73334 -117.19720 27 ft 6 kts 209°